Flag for Germany Weather past 2 weeks in Zittau, Saxony, Germany

Now
44 °F

Overcast.


Feels Like: 44 °F
Forecast: 39 / 51 °F
Wind: 2 mph from West

Location: Liberec

Current Time: Mar 28, 2015 at 5:32:19 PM

Latest Report: Mar 28, 2015 at 4:00 PM


Visibility: 16 mi

Pressure: 30.06 "Hg

Humidity: 57%

Dew point: 30 °F

Location of ZittauLocation

Historic Weather in Zittau — Graph

°F

Zittau temperature yesterday

Maximum temperature yesterday: 48 °F (at 4:00 PM)
Minimum temperature yesterday: 38 °F (at 6:00 AM)
Average temperature yesterday: 42 °F

Past Weeks' High & Low Weather Summary

 TemperatureHumidityPressure
High64 °F (Mar 25, 2:00 PM)100% (Mar 15, 7:00 AM)30.46 "Hg (Mar 15, 7:00 AM)
Low25 °F (Mar 22, 11:00 PM)18% (Mar 18, 2:00 PM)29.66 "Hg (Mar 26, 3:00 AM)
Average42 °F70%30.15 "Hg
* Reported Mar 13 4:00 PM — Mar 28 4:00 PM, Zittau, Weather by CustomWeather, © 2015

Note: Actual official high and low records may vary slightly from our data, if they occured in-between our weather recording intervals... More about our weather records

Advertising

Zittau weather history for previous 24 hours

 ConditionsComfort  
Time TempWeatherWind HumidityBarometerVisibility
4:00 PM
Sat, Mar 28
44 °FOvercast.2 mph57%30.06 "Hg16 mi
3:00 PM44 °FOvercast.2 mph62%30.08 "Hg14 mi
2:00 PM45 °FOvercast.2 mph66%30.10 "Hg11 mi
1:00 PM43 °FOvercast.3 mph72%30.13 "Hg9 mi
12:00 PM40 °FOvercast.1 mph89%30.16 "Hg4 mi
11:00 AM39 °FFog.3 mph88%30.17 "Hg2 mi
10:00 AM39 °FFog.2 mph86%30.18 "Hg5 mi
9:00 AM39 °FFog.5 mph86%30.17 "Hg6 mi
8:00 AM39 °FOvercast.5 mph89%30.17 "Hg6 mi
7:00 AM38 °FLight rain. Overcast.5 mph92%30.17 "Hg6 mi
6:00 AM38 °FChilly.7 mph91%30.16 "Hg4 mi
5:00 AM38 °FRain showers. Cloudy.6 mph93%30.14 "Hg2 mi
4:00 AM40 °FRain showers. Overcast.7 mph85%30.13 "Hg8 mi
3:00 AM40 °FQuite cool.5 mph81%30.12 "Hg12 mi
2:00 AM40 °FQuite cool.5 mph82%30.12 "Hg11 mi
1:00 AM40 °FRain showers. Overcast.6 mph83%30.12 "Hg9 mi
12:00 AM41 °FQuite cool.6 mph80%30.11 "Hg12 mi
11:00 PM
Fri, Mar 27
41 °FQuite cool.5 mph78%30.10 "Hg12 mi
9:00 PM41 °FOvercast.3 mph77%30.09 "Hg16 mi
8:00 PM42 °FSprinkles. Overcast.3 mph78%30.07 "Hg16 mi
7:00 PM41 °FPassing clouds.2 mph80%30.05 "Hg16 mi
6:00 PM44 °FQuite cool.2 mph73%30.02 "Hg12 mi
5:00 PM47 °FCool.3 mph63%29.98 "Hg12 mi
Weather by CustomWeather, © 2015

See weather overviewHow to use our weather pages